Location: Arcones
(41.1182°N, 3.7238°W)
Time: 04:54:08
(UTC+00:00)

IRAS Rocket - Pass Details

Date: 23 March 2026
Orbit: 845 x 876 km, 100.1° (Epoch: 15 April)

Event Time Altitude Azimuth Distance (km) Brightness Sun altitude
Rises 18:59:55 0° 138° (SE) 3,448 6.9 -6.4°
Reaches altitude 10° 19:02:28 10° 130° (SE) 2,510 6.2 -6.9°
Maximum altitude 19:07:29 36° 66° (ENE) 1,350 4.9 -7.8°
Drops below altitude 10° 19:12:29 10° 2° (N) 2,506 6.8 -8.7°
Sets 19:15:01 0° 354° (N) 3,442 7.6 -9.2°
